Kamez, Albania

4:23 AM CEST on October 18, 2017 (GMT +0200)
Kamez

Weather History for 13615 - December, 2013

Change the Weather History Date:

Friday, December 13, 2013

  Actual Average Record
Temperature  
Mean Temperature 44 °F -  
Max Temperature 59 °F 53 °F - ()
Min Temperature 28 °F 36 °F - ()
Degree Days  
Heating Degree Days 22    
Moisture  
Dew Point 28 °F    
Average Humidity 63    
Maximum Humidity 86    
Minimum Humidity 22    
Precipitation  
Precipitation 0.00 in -13.12 in - ()
Sea Level Pressure  
Sea Level Pressure 30.22 in    
Wind  
Wind Speed 3 mph ()    
Max Wind Speed 6 mph    
Max Gust Speed -    
Visibility 4.8 miles    
Events      
T = Trace of Precipitation, MM = Missing Value Source: Averaged Metar Reports

Daily Weather History Graph

Daily Weather History Graph

Search for Another Location

Airport or City:

Trip Planner

Search our weather history database for the weather conditions in past years. The results will help you decide how hot, cold, wet, or windy it might be!

Date:

Astronomy

Dec. 13, 2013 Rise Set
Actual Time 6:58 AM CET 4:11 PM CET
Civil Twilight 6:26 AM CET 4:43 PM CET
Nautical Twilight 5:52 AM CET 5:17 PM CET
Astronomical Twilight 5:18 AM CET 5:51 PM CET
Moon 1:45 PM CET (12/13) 3:00 AM CET (12/13)
Length of Visible Light 10h 16m
Length of Day
9h 13m
Waxing Gibbous, 86% of the Moon is Illuminated
Dec 13
Waxing Gibbous
Dec 17
Full
Dec 25
Last Quarter
Jan 1
New
Jan 8
First Quarter

Hourly Weather History & Observations

Time (CET) Temp. Windchill Dew Point Humidity Pressure Visibility Wind Dir Wind Speed Gust Speed Precip Events Conditions
12:20 AM 32.0 °F 28.7 °F 26.6 °F 80% 30.27 in - South 3.5 mph - N/A   Clear
12:50 AM 32.0 °F 27.5 °F 24.8 °F 75% 30.27 in - South 4.6 mph - N/A   Clear
1:00 AM 32 °F - 25 °F 68% 30.29 in 6 mi SE 4.5 mph - -  
1:20 AM 30.2 °F - 26.6 °F 86% 30.27 in - SE 2.3 mph - N/A   Clear
1:50 AM 30.2 °F - 26.6 °F 86% 30.27 in - Calm Calm - N/A   Clear
2:20 AM 32.0 °F 27.5 °F 24.8 °F 75% 30.27 in - SE 4.6 mph - N/A   Clear
2:50 AM 30.2 °F 26.7 °F 24.8 °F 80% 30.24 in - South 3.5 mph - N/A   Clear
3:20 AM 28.4 °F 24.6 °F 24.8 °F 86% 30.24 in - South 3.5 mph - N/A   Clear
3:50 AM 32.0 °F 27.5 °F 26.6 °F 80% 30.24 in - SSE 4.6 mph - N/A   Clear
4:00 AM 29 °F - 24 °F 75% 30.26 in 4 mi SE 2.2 mph - -  
4:20 AM 30.2 °F 25.4 °F 24.8 °F 80% 30.24 in 5.0 mi ESE 4.6 mph - N/A   Unknown
4:50 AM 28.4 °F 23.3 °F 23.0 °F 80% 30.24 in - SSE 4.6 mph - N/A   Clear
5:20 AM 28.4 °F 23.3 °F 23.0 °F 80% 30.24 in - SSE 4.6 mph - N/A   Clear
5:50 AM 30.2 °F 25.4 °F 24.8 °F 80% 30.24 in - SSE 4.6 mph - N/A   Clear
6:20 AM 30.2 °F 25.4 °F 24.8 °F 80% 30.24 in - South 4.6 mph - N/A   Clear
6:50 AM 30.2 °F 25.4 °F 24.8 °F 80% 30.24 in - SE 4.6 mph - N/A   Clear
7:20 AM 28.4 °F 23.3 °F 23.0 °F 80% 30.24 in - South 4.6 mph - N/A   Clear
7:50 AM 32.0 °F 28.7 °F 26.6 °F 80% 30.24 in 3.1 mi SE 3.5 mph - N/A   Mist
8:20 AM 35.6 °F 31.7 °F 28.4 °F 75% 30.24 in 5.0 mi South 4.6 mph - N/A   Unknown
8:50 AM 37.4 °F 34.9 °F 30.2 °F 75% 30.24 in - South 3.5 mph - N/A   Clear
9:20 AM 42.8 °F 40.1 °F 30.2 °F 61% 30.24 in - South 4.6 mph - N/A   Clear
9:50 AM 46.4 °F 44.3 °F 30.2 °F 53% 30.24 in - South 4.6 mph - N/A   Clear
10:00 AM 48 °F - 31 °F 39% 30.25 in 12 mi SSE 2.2 mph - -  
10:20 AM 50.0 °F - 32.0 °F 50% 30.24 in - Variable 2.3 mph - N/A   Clear
10:50 AM 53.6 °F - 28.4 °F 38% 30.21 in - Variable 2.3 mph - N/A   Clear
11:20 AM 57.2 °F - 28.4 °F 33% 30.21 in - Calm Calm - N/A   Clear
11:50 AM 57.2 °F - 26.6 °F 31% 30.18 in - Calm Calm - N/A   Clear
12:20 PM 59.0 °F - 28.4 °F 31% 30.18 in - Calm Calm - N/A   Clear
12:50 PM 59.0 °F - 26.6 °F 29% 30.18 in - NW 3.5 mph - N/A   Clear
1:20 PM 59.0 °F - 28.4 °F 31% 30.18 in - NNW 5.8 mph - N/A   Clear
1:50 PM 59.0 °F - 30.2 °F 34% 30.18 in - NNW 4.6 mph - N/A   Clear
2:20 PM 59.0 °F - 28.4 °F 31% 30.18 in - NW 5.8 mph - N/A   Clear
2:50 PM 59.0 °F - 24.8 °F 27% 30.18 in - NNW 4.6 mph - N/A   Clear
3:20 PM 57.2 °F - 26.6 °F 31% 30.18 in - Variable 2.3 mph - N/A   Clear
3:50 PM 55.4 °F - 26.6 °F 33% 30.18 in - WSW 3.5 mph - N/A   Clear
4:00 PM 55 °F - 27 °F 22% 30.20 in 17 mi West 4.5 mph - -  
4:20 PM 51.8 °F - 28.4 °F 41% 30.18 in - West 3.5 mph - N/A   Clear
4:50 PM 48.2 °F - 28.4 °F 46% 30.18 in - Calm Calm - N/A   Clear
5:20 PM 44.6 °F - 28.4 °F 53% 30.18 in - Variable 2.3 mph - N/A   Clear
5:50 PM 41.0 °F - 30.2 °F 65% 30.18 in 5.0 mi Variable 2.3 mph - N/A   Unknown
6:20 PM 42.8 °F 41.1 °F 32.0 °F 66% 30.21 in 3.7 mi South 3.5 mph - N/A   Unknown
6:50 PM 39.2 °F - 30.2 °F 70% 30.21 in 3.1 mi Variable 2.3 mph - N/A   Smoke
7:00 PM 42 °F - 33 °F 60% 30.22 in 3 mi South 2.2 mph - -  
7:20 PM 39.2 °F 37.0 °F 33.8 °F 81% 30.21 in 2.8 mi South 3.5 mph - N/A   Smoke
7:50 PM 35.6 °F 31.7 °F 28.4 °F 75% 30.21 in 2.8 mi South 4.6 mph - N/A   Smoke
8:20 PM 35.6 °F 31.7 °F 28.4 °F 75% 30.21 in 3.7 mi South 4.6 mph - N/A   Unknown
8:50 PM 35.6 °F 31.7 °F 30.2 °F 81% 30.21 in 3.7 mi SSE 4.6 mph - N/A   Unknown
9:20 PM 37.4 °F 34.9 °F 32.0 °F 81% 30.21 in 3.7 mi South 3.5 mph - N/A   Unknown
9:50 PM 35.6 °F 31.7 °F 30.2 °F 81% 30.21 in 3.7 mi SSE 4.6 mph - N/A   Unknown
10:00 PM 37 °F - 32 °F 74% 30.25 in 3 mi SSE 2.2 mph - -  
10:20 PM 35.6 °F 32.8 °F 30.2 °F 81% 30.24 in 3.7 mi SSE 3.5 mph - N/A   Unknown
10:50 PM 35.6 °F 32.8 °F 30.2 °F 81% 30.24 in 3.7 mi SSE 3.5 mph - N/A   Unknown
11:20 PM 35.6 °F 32.8 °F 30.2 °F 81% 30.24 in - SSE 3.5 mph - N/A   Clear
11:50 PM 32.0 °F 28.7 °F 26.6 °F 80% 30.24 in 3.7 mi SSE 3.5 mph - N/A   Unknown